Regional Weather Roundup
Issued by NWS State College, PA

Home | Current Version | Previous Version | Graphics & Text | Print | Product List | Glossary Off
Versions: 1 2 3 4 5 6 7 8 9 10 11 12 13 14 15 16 17 18 19 20 21 22 23 24 25 26 27 28 29 30 31 32 33 34 35 36 37 38 39 40 41 42 43 44 45 46 47 48 49 50

000
ASUS41 KCTP 021403
RWRCTP

REGIONAL WEATHER ROUNDUP
NATIONAL WEATHER SERVICE STATE COLLEGE PA
1000 AM EDT THU JUL 02 2015

Note: "fair" indicates few or no clouds below 12,000 feet with no
significant weather and/or obstructions to visibility.

* = STATION THAT DOES NOT REPORT PRECIPITATION /E.G. RAIN...SNOW...ETC/
    THUNDER OR FOG.

PAZ002>004-007>009-013>016-020>023-029>032-021500-
WESTERN PENNSYLVANIA

CITY           SKY/WX    TMP DP  RH WIND       PRES   REMARKS
ERIE           CLOUDY    66  58  75 NE8       29.98R
MEADVILLE      FOG       60  58  92 NE6       29.98F VSB 1
FRANKLIN*      SUNNY     66  55  68 NE5       29.98F
NEW CASTLE     FAIR      68  60  75 CALM      29.96F
BEAVER COUNTY  SUNNY     64  61  88 CALM      29.96S
BUTLER*        PTSUNNY   64  61  88 E3        29.98R
PITTSBURGH INT CLOUDY    67  61  81 CALM      29.94F
PITTSBURGH     PTSUNNY   67  57  70 W5        29.94S
INDIANA*       SUNNY     66  63  88 CALM      29.99S
LATROBE        NOT AVBL
WASHINGTON CO* NOT AVBL
$$

PAZ004>006-010>012-017>019-024>028-033>037-041-042-045-046-049>053-021500-
CENTRAL PENNSYLVANIA

CITY           SKY/WX    TMP DP  RH WIND       PRES   REMARKS
BRADFORD       CLOUDY    58  54  86 CALM      30.00R
DUBOIS         MOSUNNY   66  57  72 E3        29.97S
CLEARFIELD     MOSUNNY   67  57  70 CALM      29.97S
JOHNSTOWN      MOSUNNY   66  58  75 SW5       29.97F
ALTOONA        MOSUNNY   69  60  73 CALM      29.96F
STATE COLLEGE  CLOUDY    66  59  77 CALM      29.97R
WILLIAMSPORT   MOSUNNY   67  58  72 CALM      29.95R
SELINSGROVE    MOSUNNY   71  60  68 NE6       29.95S
FT INDIANTOWN  SUNNY     73  60  65 VRB5      29.92S
CAPITAL CITY   SUNNY     74  61  63 CALM      29.92S
HARRISBURG     PTSUNNY   73  59  61 NE6       29.91S
YORK           MOSUNNY   71  63  75 NE3       29.92S
$$

PAZ038>040-043-044-047-048-054-055-060>062-067>071-021500-
EASTERN PENNSYLVANIA

CITY           SKY/WX    TMP DP  RH WIND       PRES   REMARKS
SCRANTON       PTSUNNY   70  57  63 VRB3      29.95S
MOUNT POCONO   SUNNY     66  55  67 NW6       29.97S
ALLENTOWN      SUNNY     74  61  63 E6        29.93S
QUAKERTOWN*    MOSUNNY   73  63  68 NE3       29.94S
READING        SUNNY     73  60  63 CALM      29.91F
LANCASTER      MOSUNNY   72  61  68 NE3       29.92S
COATESVILLE    NOT AVBL
POTTSTOWN      MOSUNNY   71  63  75 NE6       29.93F
BLUE BELL      NOT AVBL
DOYLESTOWN     MOSUNNY   72  61  68 N6        29.93R
WILLOW GROVE   NOT AVBL
NORTH PHILA    CLOUDY    73  59  61 NE6       29.93S
PHILADELPHIA   LGT RAIN  72  63  73 E3        29.92R HAZE
$$


USA.gov is the U.S. government's official web portal to all federal, state and local government web resources and services.